• In Czech Republic
  • List of Countries
  • For 7 days
  • Water Temperature
  • Satellite Maps
  • Weather Map
  • Weather Widgets
  • user-avatar
    Login

    Hourly Weather Wiktoria

    Today, 23 August, Wednesday

    Time Temperature Precipitation Wind Pressure Humidity
    00:00 +10°C° 0 mm 1 mps 753 mmHg 83%
    01:00 +9°C° 0 mm 1 mps 753 mmHg 84%
    02:00 +9°C° 0 mm 1 mps 753 mmHg 85%
    03:00 +9°C° 0 mm 1 mps 753 mmHg 86%
    04:00 +9°C° 0 mm 1 mps 753 mmHg 86%
    05:00 +9°C° 0 mm 1 mps 753 mmHg 86%
    06:00 +9°C° 0 mm 1 mps 753 mmHg 87%
    07:00 +9°C° 0 mm 1 mps 753 mmHg 87%
    08:00 +10°C° 0 mm 1 mps 753 mmHg 85%
    09:00 +10°C° 0 mm 2 mps 753 mmHg 82%
    10:00 +12°C° 0 mm 2 mps 753 mmHg 81%
    11:00 +13°C° 0.1 mm 2 mps 752 mmHg 79%
    12:00 +12°C° 0.1 mm 3 mps 752 mmHg 77%
    13:00 +13°C° 0.1 mm 3 mps 752 mmHg 76%
    14:00 +13°C° 0.1 mm 3 mps 751 mmHg 76%
    15:00 +14°C° 0.1 mm 3 mps 751 mmHg 75%
    16:00 +14°C° 0.1 mm 3 mps 751 mmHg 75%
    17:00 +12°C° 0.3 mm 3 mps 751 mmHg 80%
    18:00 +12°C° 0.3 mm 2 mps 751 mmHg 85%
    19:00 +9°C° 0.3 mm 2 mps 751 mmHg 90%
    20:00 +9°C° 0.4 mm 2 mps 752 mmHg 91%
    21:00 +9°C° 0.4 mm 2 mps 752 mmHg 93%
    22:00 +8°C° 0.4 mm 2 mps 753 mmHg 95%
    23:00 +7°C° 0 mm 2 mps 753 mmHg 95%

    Tomorrow, 24 August, Thursday

    Time Temperature Precipitation Wind Pressure Humidity
    00:00 +5°C° 0 mm 3 mps 753 mmHg 95%
    01:00 +5°C° 0 mm 3 mps 753 mmHg 96%
    02:00 +4°C° 0 mm 3 mps 753 mmHg 96%
    03:00 +4°C° 0 mm 3 mps 753 mmHg 96%
    04:00 +3°C° 0 mm 3 mps 753 mmHg 96%
    05:00 +3°C° 0 mm 3 mps 754 mmHg 96%
    06:00 +2°C° 0 mm 3 mps 754 mmHg 96%
    07:00 +2°C° 0 mm 3 mps 754 mmHg 96%
    08:00 +4°C° 0 mm 3 mps 755 mmHg 91%
    09:00 +7°C° 0 mm 3 mps 755 mmHg 87%
    10:00 +8°C° 0 mm 4 mps 755 mmHg 83%
    11:00 +10°C° 0 mm 4 mps 755 mmHg 77%
    12:00 +11°C° 0 mm 4 mps 754 mmHg 71%
    13:00 +12°C° 0 mm 4 mps 754 mmHg 65%
    14:00 +12°C° 0.1 mm 4 mps 754 mmHg 67%
    15:00 +12°C° 0.1 mm 4 mps 754 mmHg 68%
    16:00 +12°C° 0.1 mm 4 mps 754 mmHg 69%
    17:00 +11°C° 0 mm 3 mps 754 mmHg 75%
    18:00 +9°C° 0 mm 3 mps 755 mmHg 80%
    19:00 +7°C° 0 mm 3 mps 755 mmHg 86%
    20:00 +5°C° 0 mm 3 mps 756 mmHg 87%
    21:00 +5°C° 0 mm 3 mps 756 mmHg 89%
    22:00 +4°C° 0 mm 3 mps 757 mmHg 91%
    23:00 +4°C° 0 mm 3 mps 757 mmHg 92%

    Day after tomorrow, 25 August, Friday

    Time Temperature Precipitation Wind Pressure Humidity
    00:00 +3°C° 0 mm 3 mps 757 mmHg 93%
    01:00 +4°C° 0 mm 2 mps 757 mmHg 94%
    02:00 +4°C° 0 mm 2 mps 757 mmHg 94%
    03:00 +3°C° 0 mm 2 mps 757 mmHg 94%
    04:00 +3°C° 0 mm 2 mps 757 mmHg 95%
    05:00 +3°C° 0 mm 2 mps 758 mmHg 94%
    06:00 +2°C° 0 mm 2 mps 758 mmHg 94%
    07:00 +2°C° 0 mm 2 mps 758 mmHg 94%
    08:00 +4°C° 0 mm 2 mps 758 mmHg 87%
    09:00 +7°C° 0 mm 2 mps 759 mmHg 80%
    10:00 +9°C° 0 mm 2 mps 759 mmHg 73%
    11:00 +12°C° 0 mm 2 mps 758 mmHg 68%
    12:00 +13°C° 0 mm 2 mps 758 mmHg 64%
    13:00 +14°C° 0 mm 2 mps 757 mmHg 59%
    14:00 +14°C° 0 mm 2 mps 757 mmHg 62%
    15:00 +13°C° 0 mm 3 mps 757 mmHg 64%
    16:00 +13°C° 0 mm 3 mps 756 mmHg 67%
    17:00 +12°C° 0 mm 2 mps 757 mmHg 72%
    18:00 +9°C° 0 mm 2 mps 757 mmHg 77%
    19:00 +8°C° 0 mm 2 mps 758 mmHg 82%
    20:00 +7°C° 0 mm 2 mps 758 mmHg 85%
    21:00 +6°C° 0 mm 2 mps 758 mmHg 87%
    22:00 +6°C° 0 mm 2 mps 758 mmHg 89%
    23:00 +6°C° 0 mm 2 mps 758 mmHg 89%

    26 August, Saturday

    Time Temperature Precipitation Wind Pressure Humidity
    00:00 +5°C° 0 mm 2 mps 758 mmHg 89%
    01:00 +5°C° 0 mm 2 mps 758 mmHg 89%
    02:00 +6°C° 0 mm 1 mps 758 mmHg 90%
    03:00 +5°C° 0 mm 1 mps 758 mmHg 91%
    04:00 +5°C° 0 mm 1 mps 758 mmHg 92%
    05:00 +4°C° 0 mm 1 mps 758 mmHg 92%
    06:00 +4°C° 0 mm 1 mps 758 mmHg 92%
    07:00 +3°C° 0 mm 0 mps 759 mmHg 92%
    08:00 +6°C° 0 mm 1 mps 759 mmHg 86%
    09:00 +9°C° 0 mm 1 mps 759 mmHg 79%
    10:00 +10°C° 0 mm 2 mps 759 mmHg 73%
    11:00 +12°C° 0 mm 2 mps 758 mmHg 70%
    12:00 +13°C° 0 mm 2 mps 758 mmHg 67%
    13:00 +13°C° 0 mm 3 mps 757 mmHg 64%
    14:00 +13°C° 0.1 mm 3 mps 757 mmHg 67%
    15:00 +13°C° 0.1 mm 3 mps 757 mmHg 70%
    16:00 +14°C° 0.1 mm 2 mps 757 mmHg 73%
    17:00 +13°C° 0.1 mm 2 mps 757 mmHg 78%
    18:00 +10°C° 0.1 mm 2 mps 758 mmHg 82%
    19:00 +8°C° 0.1 mm 2 mps 758 mmHg 87%
    20:00 +9°C° 0 mm 1 mps 758 mmHg 89%
    21:00 +8°C° 0 mm 1 mps 759 mmHg 91%
    22:00 +7°C° 0 mm 1 mps 759 mmHg 93%
    23:00 +7°C° 0 mm 1 mps 759 mmHg 93%

    27 August, Sunday

    Time Temperature Precipitation Wind Pressure Humidity
    00:00 +7°C° 0 mm 1 mps 759 mmHg 94%
    01:00 +6°C° 0 mm 1 mps 758 mmHg 94%
    02:00 +6°C° 0 mm 1 mps 758 mmHg 95%
    03:00 +5°C° 0 mm 2 mps 758 mmHg 95%
    04:00 +5°C° 0 mm 2 mps 758 mmHg 95%
    05:00 +5°C° 0 mm 2 mps 758 mmHg 95%
    06:00 +5°C° 0 mm 2 mps 759 mmHg 95%
    07:00 +5°C° 0 mm 2 mps 759 mmHg 96%
    08:00 +7°C° 0 mm 2 mps 759 mmHg 90%
    09:00 +9°C° 0 mm 3 mps 760 mmHg 83%
    10:00 +11°C° 0 mm 4 mps 760 mmHg 77%
    11:00 +12°C° 0 mm 4 mps 759 mmHg 73%
    12:00 +13°C° 0 mm 4 mps 759 mmHg 68%
    13:00 +14°C° 0 mm 4 mps 759 mmHg 63%
    14:00 +14°C° 0 mm 4 mps 758 mmHg 65%
    15:00 +14°C° 0 mm 4 mps 758 mmHg 66%
    16:00 +14°C° 0 mm 4 mps 758 mmHg 67%
    17:00 +12°C° 0 mm 4 mps 758 mmHg 70%
    18:00 +10°C° 0 mm 4 mps 759 mmHg 73%
    19:00 +7°C° 0 mm 4 mps 759 mmHg 76%
    20:00 +6°C° 0 mm 4 mps 759 mmHg 78%
    21:00 +5°C° 0 mm 4 mps 759 mmHg 80%
    22:00 +4°C° 0 mm 3 mps 760 mmHg 82%
    23:00 +4°C° 0 mm 3 mps 759 mmHg 85%

    28 August, Monday

    Time Temperature Precipitation Wind Pressure Humidity
    00:00 +3°C° 0 mm 3 mps 759 mmHg 88%
    01:00 +2°C° 0 mm 3 mps 759 mmHg 91%
    02:00 +3°C° 0 mm 2 mps 759 mmHg 91%
    03:00 +3°C° 0 mm 2 mps 759 mmHg 92%
    04:00 +2°C° 0 mm 2 mps 758 mmHg 93%
    05:00 +2°C° 0 mm 2 mps 759 mmHg 93%
    06:00 +2°C° 0 mm 2 mps 759 mmHg 93%
    07:00 +2°C° 0 mm 2 mps 759 mmHg 93%
    08:00 +4°C° 0 mm 2 mps 759 mmHg 85%
    09:00 +7°C° 0 mm 2 mps 759 mmHg 77%
    10:00 +10°C° 0 mm 1 mps 759 mmHg 69%
    11:00 +12°C° 0 mm 1 mps 758 mmHg 66%
    12:00 +13°C° 0 mm 1 mps 758 mmHg 63%
    13:00 +14°C° 0 mm 1 mps 757 mmHg 61%
    14:00 +14°C° 0 mm 1 mps 757 mmHg 61%
    15:00 +14°C° 0 mm 1 mps 756 mmHg 61%
    16:00 +14°C° 0 mm 1 mps 756 mmHg 61%
    17:00 +12°C° 0 mm 1 mps 756 mmHg 68%
    18:00 +10°C° 0 mm 1 mps 756 mmHg 75%
    19:00 +8°C° 0 mm 1 mps 757 mmHg 81%
    20:00 +7°C° 0 mm 1 mps 757 mmHg 84%
    21:00 +6°C° 0 mm 2 mps 757 mmHg 86%
    22:00 +5°C° 0 mm 2 mps 757 mmHg 88%
    23:00 +5°C° 0 mm 2 mps 757 mmHg 89%
    Show more